Location: �clusier
(49.9361°N, 2.7869°E)
Time: 22:45:18
(UTC+00:00)

Meteor 2-10 Rocket - Pass Details

Date: 16 June 2021
Orbit: 733 x 885 km, 81.2° (Epoch: 01 August)

Event Time Altitude Azimuth Distance (km) Brightness Sun altitude
Rises 23:08:47 0° 342° (NNW) 3,243 8.5 -16.1°
Reaches altitude 10° 23:11:18 10° 334° (NNW) 2,294 7.2 -16.2°
Maximum altitude 23:16:00 38° 268° (W) 1,123 4.4 -16.3°
Enters shadow 23:18:56 20° 211° (SSW) 1,667 4.8 -16.4°
